| time (UTC) | temp C | wind direction | speed KPH | gust KPH | rain 1hr cm | rain 24hr cm | rain mn cm | humidity % | barometer mb |
| 20260506031645 | 6 | 177 | 0.0 | 6.4 | 0.03 | 0.03 | 0.03 | 79 | 1015.4 |
| 20260506031136 | 6 | 254 | 1.6 | 8.0 | 0.03 | 0.03 | 0.03 | 78 | 1015.5 |
| 20260506030630 | 6 | 46 | 1.6 | 9.7 | 0.03 | 0.03 | 0.03 | 78 | 1015.2 |
| 20260506030127 | 6 | 252 | 1.6 | 6.4 | 0.03 | 0.03 | 0.03 | 78 | 1015.0 |
| 20260506025622 | 6 | 321 | 3.2 | 19.3 | 0.03 | 0.03 | 0.03 | 77 | 1014.7 |
| 20260506025156 | 6 | 273 | 3.2 | 24.1 | 0.03 | 0.03 | 0.03 | 76 | 1014.6 |
| 20260506024648 | 6 | 261 | 4.8 | 24.1 | 0.03 | 0.03 | 0.03 | 73 | 1014.2 |
| 20260506024141 | 7 | 88 | 4.8 | 19.3 | 0.00 | 0.00 | 0.00 | 70 | 1014.0 |
| 20260506023635 | 6 | 105 | 1.6 | 9.7 | 0.00 | 0.00 | 0.00 | 71 | 1014.2 |
| 20260506023129 | 6 | 288 | 3.2 | 9.7 | 0.00 | 0.00 | 0.00 | 71 | 1014.3 |
| 20260506022644 | 7 | 200 | 1.6 | 22.5 | 0.00 | 0.00 | 0.00 | 70 | 1014.5 |
| 20260506022156 | 7 | 312 | 6.4 | 22.5 | 0.00 | 0.00 | 0.00 | 69 | 1014.5 |
| 20260506021629 | 7 | 25 | 6.4 | 17.7 | 0.00 | 0.00 | 0.00 | 70 | 1014.0 |
| 20260506021144 | 7 | 355 | 6.4 | 14.5 | 0.00 | 0.00 | 0.00 | 72 | 1013.5 |
| 20260506020636 | 6 | 284 | 1.6 | 12.9 | 0.00 | 0.00 | 0.00 | 72 | 1013.1 |
| 20260506020129 | 6 | 23 | 3.2 | 12.9 | 0.00 | 0.00 | 0.00 | 73 | 1013.1 |
| 20260506015642 | 6 | 320 | 3.2 | 6.4 | 0.00 | 0.00 | 0.00 | 78 | 1013.1 |
| 20260506015155 | 6 | 120 | 3.2 | 4.8 | 0.00 | 0.00 | 0.00 | 77 | 1013.3 |
| 20260506014629 | 6 | 205 | 1.6 | 4.8 | 0.00 | 0.00 | 0.00 | 77 | 1013.7 |
| 20260506014141 | 6 | 182 | 1.6 | 12.9 | 0.00 | 0.00 | 0.00 | 76 | 1013.8 |
| 20260506013656 | 6 | 281 | 0.0 | 12.9 | 0.00 | 0.00 | 0.00 | 76 | 1014.1 |
| 20260506013129 | 7 | 230 | 4.8 | 11.3 | 0.00 | 0.00 | 0.00 | 73 | 1014.2 |
| 20260506012623 | 7 | 313 | 3.2 | 16.1 | 0.00 | 0.00 | 0.00 | 69 | 1014.0 |
| 20260506012140 | 8 | 315 | 4.8 | 16.1 | 0.00 | 0.00 | 0.00 | 64 | 1014.0 |
| 20260506011654 | 10 | 284 | 4.8 | 14.5 | 0.00 | 0.00 | 0.00 | 59 | 1014.0 |
| 20260506011127 | 10 | 360 | 4.8 | 14.5 | 0.00 | 0.00 | 0.00 | 53 | 1013.4 |
| 20260506010701 | 10 | 251 | 3.2 | 11.3 | 0.00 | 0.00 | 0.00 | 55 | 1013.3 |
| 20260506010133 | 10 | 209 | 1.6 | 6.4 | 0.00 | 0.00 | 0.00 | 55 | 1013.0 |
| 20260506005627 | 10 | 46 | 3.2 | 6.4 | 0.00 | 0.00 | 0.00 | 54 | 1012.6 |
| 20260506005140 | 10 | 246 | 3.2 | 8.0 | 0.00 | 0.00 | 0.00 | 54 | 1012.8 |
| 20260506004634 | 10 | 232 | 4.8 | 12.9 | 0.00 | 0.00 | 0.00 | 53 | 1012.9 |
| 20260506004148 | 10 | 255 | 6.4 | 12.9 | 0.00 | 0.00 | 0.00 | 51 | 1012.6 |
| 20260506003626 | 11 | 315 | 1.6 | 11.3 | 0.00 | 0.00 | 0.00 | 50 | 1012.5 |
| 20260506003140 | 11 | 292 | 3.2 | 9.7 | 0.00 | 0.00 | 0.00 | 50 | 1012.4 |
| 20260506002633 | 11 | 39 | 4.8 | 9.7 | 0.00 | 0.00 | 0.00 | 49 | 1012.6 |
| 20260506002148 | 12 | 283 | 4.8 | 11.3 | 0.00 | 0.00 | 0.00 | 47 | 1012.6 |
| 20260506001640 | 12 | 313 | 4.8 | 16.1 | 0.00 | 0.00 | 0.00 | 43 | 1012.7 |
| 20260506001135 | 12 | 11 | 4.8 | 16.1 | 0.00 | 0.00 | 0.00 | 42 | 1012.5 |
| 20260506000628 | 13 | 70 | 4.8 | 9.7 | 0.00 | 0.00 | 0.00 | 42 | 1012.4 |
| 20260506000141 | 13 | 34 | 4.8 | 8.0 | 0.00 | 0.00 | 0.00 | 42 | 1012.2 |
| 20260505235631 | 13 | 318 | 3.2 | 17.7 | 0.00 | 0.00 | 0.00 | 42 | 1012.3 |
| 20260505235125 | 13 | 300 | 6.4 | 17.7 | 0.00 | 0.00 | 0.00 | 42 | 1012.2 |
| 20260505234639 | 13 | 220 | 3.2 | 14.5 | 0.00 | 0.00 | 0.00 | 43 | 1011.9 |
| 20260505234153 | 13 | 264 | 4.8 | 17.7 | 0.00 | 0.00 | 0.00 | 44 | 1011.8 |
| 20260505233625 | 12 | 355 | 6.4 | 17.7 | 0.00 | 0.00 | 0.00 | 45 | 1011.7 |
| 20260505233140 | 12 | 96 | 1.6 | 8.0 | 0.00 | 0.00 | 0.00 | 48 | 1011.8 |
| 20260505232634 | 12 | 305 | 3.2 | 8.0 | 0.00 | 0.00 | 0.00 | 47 | 1011.7 |
| 20260505232128 | 12 | 316 | 1.6 | 9.7 | 0.00 | 0.00 | 0.00 | 47 | 1011.7 |
| 20260505231640 | 12 | 86 | 3.2 | 9.7 | 0.00 | 0.00 | 0.00 | 46 | 1012.0 |
| 20260505231134 | 12 | 310 | 1.6 | 8.0 | 0.00 | 0.00 | 0.00 | 48 | 1012.3 |
| 20260505230632 | 12 | 10 | 4.8 | 20.9 | 0.00 | 0.00 | 0.00 | 49 | 1012.5 |
| 20260505230125 | 13 | 326 | 3.2 | 6.4 | 0.00 | 0.00 | 0.00 | 43 | 1012.4 |
| 20260505225640 | 13 | 101 | 1.6 | 6.4 | 0.00 | 0.00 | 0.00 | 43 | 1012.1 |
| 20260505225133 | 13 | 228 | 1.6 | 14.5 | 0.00 | 0.00 | 0.00 | 41 | 1012.0 |
| 20260505224627 | 13 | 306 | 3.2 | 14.5 | 0.00 | 0.00 | 0.00 | 41 | 1011.8 |
| 20260505224141 | 13 | 360 | 3.2 | 9.7 | 0.00 | 0.00 | 0.00 | 40 | 1011.7 |
| 20260505223635 | 13 | 347 | 4.8 | 9.7 | 0.00 | 0.00 | 0.00 | 42 | 1011.9 |
| 20260505223133 | 14 | 76 | 6.4 | 14.5 | 0.00 | 0.00 | 0.00 | 42 | 1011.7 |
| 20260505222626 | 14 | 112 | 8.0 | 16.1 | 0.00 | 0.00 | 0.00 | 42 | 1011.5 |
| 20260505222141 | 14 | 267 | 3.2 | 8.0 | 0.00 | 0.00 | 0.00 | 42 | 1011.7 |
| 20260505221634 | 14 | 148 | 1.6 | 9.7 | 0.00 | 0.00 | 0.00 | 44 | 1011.8 |
| 20260505221127 | 13 | 109 | 1.6 | 6.4 | 0.00 | 0.00 | 0.00 | 44 | 1011.9 |
| 20260505220622 | 13 | 150 | 1.6 | 8.0 | 0.00 | 0.00 | 0.00 | 43 | 1012.1 |
| 20260505220135 | 13 | 292 | 1.6 | 4.8 | 0.00 | 0.00 | 0.00 | 43 | 1012.0 |
| 20260505215629 | 13 | 129 | 1.6 | 6.4 | 0.00 | 0.00 | 0.00 | 42 | 1012.0 |
| 20260505215143 | 13 | 147 | 1.6 | 9.7 | 0.00 | 0.00 | 0.00 | 42 | 1012.1 |
| 20260505214640 | 13 | 139 | 3.2 | 9.7 | 0.00 | 0.00 | 0.00 | 41 | 1012.2 |
| 20260505214154 | 13 | 134 | 1.6 | 9.7 | 0.00 | 0.00 | 0.00 | 42 | 1012.3 |
| 20260505213627 | 13 | 58 | 1.6 | 8.0 | 0.00 | 0.00 | 0.00 | 43 | 1012.3 |
| 20260505213141 | 13 | 58 | 1.6 | 8.0 | 0.00 | 0.00 | 0.00 | 41 | 1012.4 |
| 20260505212634 | 13 | 344 | 0.0 | 4.8 | 0.00 | 0.00 | 0.00 | 42 | 1012.6 |
| 20260505212128 | 13 | 346 | 1.6 | 4.8 | 0.00 | 0.00 | 0.00 | 42 | 1012.6 |
| 20260505211623 | 13 | 49 | 3.2 | 9.7 | 0.00 | 0.00 | 0.00 | 41 | 1012.7 |
| 20260505211136 | 14 | 55 | 3.2 | 9.7 | 0.00 | 0.00 | 0.00 | 40 | 1012.9 |
| 20260505210634 | 14 | 242 | 3.2 | 8.0 | 0.00 | 0.00 | 0.00 | 39 | 1012.9 |
| 20260505210128 | 14 | 73 | 3.2 | 8.0 | 0.00 | 0.00 | 0.00 | 40 | 1012.8 |
| 20260505205622 | 14 | 205 | 3.2 | 12.9 | 0.00 | 0.00 | 0.00 | 40 | 1013.0 |
| 20260505205157 | 14 | 207 | 3.2 | 12.9 | 0.00 | 0.00 | 0.00 | 41 | 1013.0 |
| 20260505204630 | 14 | 103 | 3.2 | 8.0 | 0.00 | 0.00 | 0.00 | 42 | 1013.1 |
| 20260505204123 | 13 | 259 | 3.2 | 8.0 | 0.00 | 0.00 | 0.00 | 43 | 1013.2 |
| 20260505203637 | 13 | 144 | 1.6 | 6.4 | 0.00 | 0.00 | 0.00 | 47 | 1013.3 |
| 20260505203130 | 12 | 275 | 3.2 | 8.0 | 0.00 | 0.00 | 0.00 | 47 | 1013.4 |
| 20260505202628 | 12 | 297 | 1.6 | 8.0 | 0.00 | 0.00 | 0.00 | 50 | 1013.7 |
| 20260505202121 | 12 | 63 | 3.2 | 8.0 | 0.00 | 0.00 | 0.00 | 51 | 1013.9 |
| 20260505201635 | 12 | 340 | 3.2 | 11.3 | 0.00 | 0.00 | 0.00 | 47 | 1013.8 |
| 20260505201129 | 12 | 212 | 1.6 | 11.3 | 0.00 | 0.00 | 0.00 | 47 | 1013.8 |
| 20260505200623 | 12 | 259 | 1.6 | 8.0 | 0.00 | 0.00 | 0.00 | 47 | 1013.7 |
| 20260505200158 | 12 | 288 | 3.2 | 8.0 | 0.00 | 0.00 | 0.00 | 49 | 1013.6 |
| 20260505195630 | 12 | 16 | 3.2 | 8.0 | 0.00 | 0.00 | 0.00 | 49 | 1013.6 |
| 20260505195125 | 12 | 36 | 4.8 | 8.0 | 0.00 | 0.00 | 0.00 | 48 | 1013.8 |
| 20260505194622 | 12 | 11 | 3.2 | 11.3 | 0.00 | 0.00 | 0.00 | 50 | 1013.8 |
| 20260505194136 | 12 | 324 | 3.2 | 12.9 | 0.00 | 0.00 | 0.00 | 50 | 1013.9 |
| 20260505193631 | 12 | 12 | 3.2 | 8.0 | 0.00 | 0.00 | 0.00 | 53 | 1013.8 |
| 20260505193122 | 12 | 315 | 4.8 | 8.0 | 0.00 | 0.00 | 0.00 | 49 | 1013.8 |
| 20260505192637 | 12 | 42 | 1.6 | 6.4 | 0.00 | 0.00 | 0.00 | 50 | 1013.8 |
| 20260505192130 | 12 | 275 | 1.6 | 8.0 | 0.00 | 0.00 | 0.00 | 50 | 1013.9 |
| 20260505191644 | 12 | 296 | 3.2 | 16.1 | 0.00 | 0.00 | 0.00 | 52 | 1013.9 |
| 20260505191134 | 12 | 236 | 4.8 | 16.1 | 0.00 | 0.00 | 0.00 | 51 | 1013.9 |
| 20260505190629 | 12 | 294 | 3.2 | 6.4 | 0.00 | 0.00 | 0.00 | 57 | 1014.0 |
| 20260505190126 | 11 | 165 | 1.6 | 8.0 | 0.00 | 0.00 | 0.00 | 60 | 1014.0 |
| 20260505185640 | 11 | 14 | 1.6 | 9.7 | 0.00 | 0.00 | 0.00 | 66 | 1014.0 |
| 20260505185133 | 11 | 289 | 6.4 | 9.7 | 0.00 | 0.00 | 0.00 | 59 | 1014.2 |
| 20260505184627 | 10 | 333 | 4.8 | 9.7 | 0.00 | 0.00 | 0.00 | 60 | 1014.2 |
| 20260505184141 | 10 | 32 | 1.6 | 6.4 | 0.00 | 0.00 | 0.00 | 62 | 1014.1 |
| 20260505183635 | 10 | 302 | 3.2 | 6.4 | 0.00 | 0.00 | 0.00 | 60 | 1014.2 |
| 20260505183129 | 11 | 296 | 1.6 | 6.4 | 0.00 | 0.00 | 0.00 | 59 | 1014.1 |
| 20260505182643 | 11 | 315 | 1.6 | 4.8 | 0.00 | 0.00 | 0.00 | 56 | 1014.1 |
| 20260505182140 | 11 | 360 | 1.6 | 4.8 | 0.00 | 0.00 | 0.00 | 51 | 1014.0 |
| 20260505181633 | 11 | 273 | 1.6 | 6.4 | 0.00 | 0.00 | 0.00 | 51 | 1013.9 |
| 20260505181128 | 12 | 11 | 3.2 | 6.4 | 0.00 | 0.00 | 0.00 | 50 | 1013.7 |
| 20260505180621 | 12 | 81 | 1.6 | 6.4 | 0.00 | 0.00 | 0.00 | 49 | 1013.7 |
| 20260505180136 | 12 | 137 | 0.0 | 6.4 | 0.00 | 0.00 | 0.00 | 43 | 1013.7 |
| 20260505175649 | 12 | 277 | 1.6 | 6.4 | 0.00 | 0.00 | 0.00 | 43 | 1013.6 |
| 20260505175122 | 12 | 46 | 4.8 | 6.4 | 0.00 | 0.00 | 0.00 | 43 | 1013.5 |
| 20260505174636 | 12 | 288 | 3.2 | 6.4 | 0.00 | 0.00 | 0.00 | 43 | 1013.5 |
| 20260505174133 | 12 | 312 | 1.6 | 6.4 | 0.00 | 0.00 | 0.00 | 43 | 1013.7 |
| 20260505173627 | 12 | 139 | 3.2 | 6.4 | 0.00 | 0.00 | 0.00 | 43 | 1013.8 |
| 20260505173141 | 12 | 148 | 3.2 | 8.0 | 0.00 | 0.00 | 0.00 | 42 | 1014.0 |
| 20260505172635 | 12 | 134 | 3.2 | 11.3 | 0.00 | 0.00 | 0.00 | 42 | 1014.0 |
| 20260505172128 | 12 | 130 | 1.6 | 11.3 | 0.00 | 0.00 | 0.00 | 42 | 1014.0 |
| 20260505171622 | 12 | 98 | 3.2 | 8.0 | 0.00 | 0.00 | 0.00 | 42 | 1014.0 |
| 20260505171156 | 12 | 34 | 3.2 | 11.3 | 0.00 | 0.00 | 0.00 | 42 | 1014.0 |
| 20260505170627 | 12 | 167 | 3.2 | 12.9 | 0.00 | 0.00 | 0.00 | 41 | 1014.1 |
| 20260505170141 | 12 | 178 | 3.2 | 8.0 | 0.00 | 0.00 | 0.00 | 42 | 1014.0 |
| 20260505165639 | 12 | 256 | 1.6 | 9.7 | 0.00 | 0.00 | 0.00 | 42 | 1014.1 |
| 20260505165132 | 12 | 151 | 3.2 | 12.9 | 0.00 | 0.00 | 0.00 | 44 | 1014.2 |
| 20260505164646 | 11 | 121 | 4.8 | 9.7 | 0.00 | 0.00 | 0.00 | 45 | 1014.3 |
| 20260505164139 | 11 | 143 | 3.2 | 8.0 | 0.00 | 0.00 | 0.00 | 44 | 1014.4 |
| 20260505163633 | 11 | 176 | 1.6 | 4.8 | 0.00 | 0.00 | 0.00 | 44 | 1014.5 |
| 20260505163147 | 11 | 202 | 0.0 | 4.8 | 0.00 | 0.00 | 0.00 | 44 | 1014.6 |
| 20260505162640 | 11 | 36 | 0.0 | 6.4 | 0.00 | 0.00 | 0.00 | 45 | 1014.6 |
| 20260505162134 | 11 | 321 | 1.6 | 8.0 | 0.00 | 0.00 | 0.00 | 46 | 1014.5 |
| 20260505161627 | 11 | 355 | 3.2 | 8.0 | 0.00 | 0.00 | 0.00 | 45 | 1014.5 |
| 20260505161125 | 11 | 309 | 1.6 | 6.4 | 0.00 | 0.00 | 0.00 | 46 | 1014.5 |
| 20260505160639 | 11 | 189 | 1.6 | 6.4 | 0.00 | 0.00 | 0.00 | 46 | 1014.7 |
| 20260505160153 | 11 | 327 | 1.6 | 6.4 | 0.00 | 0.00 | 0.00 | 46 | 1014.7 |
| 20260505153135 | 11 | 91 | 1.6 | 8.0 | 0.00 | 0.00 | 0.00 | 45 | 1015.0 |
| 20260505152632 | 11 | 177 | 3.2 | 8.0 | 0.00 | 0.00 | 0.00 | 44 | 1014.8 |
| 20260505152126 | 11 | 197 | 1.6 | 4.8 | 0.00 | 0.00 | 0.00 | 44 | 1015.0 |
| 20260505151638 | 11 | 198 | 1.6 | 4.8 | 0.00 | 0.00 | 0.00 | 45 | 1015.1 |
| 20260505151131 | 10 | 126 | 1.6 | 4.8 | 0.00 | 0.00 | 0.00 | 45 | 1015.2 |
| 20260505150624 | 10 | 299 | 1.6 | 11.3 | 0.00 | 0.00 | 0.00 | 45 | 1015.1 |
| 20260505150137 | 10 | 239 | 1.6 | 11.3 | 0.00 | 0.00 | 0.00 | 45 | 1015.2 |
| 20260505140644 | 10 | 19 | 1.6 | 6.4 | 0.00 | 0.00 | 0.00 | 52 | 1015.1 |
| 20260505140137 | 10 | 5 | 3.2 | 6.4 | 0.00 | 0.00 | 0.00 | 51 | 1015.3 |
| 20260505130123 | 9 | 194 | 1.6 | 3.2 | 0.00 | 0.00 | 0.00 | 52 | 1015.4 |
| 20260505124627 | 9 | 252 | 3.2 | 8.0 | 0.00 | 0.00 | 0.00 | 52 | 1015.1 |
| 20260505124141 | 9 | 349 | 3.2 | 6.4 | 0.00 | 0.00 | 0.00 | 52 | 1015.2 |
| 20260505123635 | 9 | 54 | 0.0 | 0.0 | 0.00 | 0.00 | 0.00 | 52 | 1015.2 |
| 20260505123128 | 9 | 54 | 0.0 | 3.2 | 0.00 | 0.00 | 0.00 | 51 | 1015.2 |
| 20260505122642 | 9 | 54 | 0.0 | 4.8 | 0.00 | 0.00 | 0.00 | 50 | 1015.1 |
| 20260505122136 | 9 | 54 | 1.6 | 6.4 | 0.00 | 0.00 | 0.00 | 50 | 1015.1 |
| 20260505121629 | 9 | 42 | 1.6 | 6.4 | 0.00 | 0.00 | 0.00 | 50 | 1015.0 |
| 20260505121128 | 9 | 88 | 3.2 | 3.2 | 0.00 | 0.00 | 0.00 | 49 | 1014.9 |
| 20260505120639 | 9 | 240 | 0.0 | 0.0 | 0.00 | 0.00 | 0.00 | 49 | 1014.9 |
| 20260505120132 | 9 | 157 | 0.0 | 0.0 | 0.00 | 0.00 | 0.00 | 48 | 1014.7 |
| 20260505115646 | 10 | 157 | 0.0 | 0.0 | 0.00 | 0.00 | 0.00 | 47 | 1014.7 |
| 20260505115139 | 10 | 157 | 0.0 | 3.2 | 0.00 | 0.00 | 0.00 | 47 | 1014.6 |
| 20260505114632 | 10 | 157 | 0.0 | 3.2 | 0.00 | 0.00 | 0.00 | 46 | 1014.7 |
| 20260505114126 | 10 | 166 | 0.0 | 0.0 | 0.00 | 0.00 | 0.00 | 46 | 1014.8 |
| 20260505113640 | 10 | 166 | 0.0 | 3.2 | 0.00 | 0.00 | 0.00 | 45 | 1014.8 |
| 20260505113154 | 10 | 264 | 0.0 | 6.4 | 0.00 | 0.00 | 0.00 | 45 | 1014.7 |
| 20260505112632 | 10 | 279 | 1.6 | 9.7 | 0.00 | 0.00 | 0.00 | 45 | 1014.8 |
| 20260505112126 | 10 | 49 | 3.2 | 4.8 | 0.00 | 0.00 | 0.00 | 45 | 1014.8 |
| 20260505111639 | 10 | 153 | 0.0 | 4.8 | 0.00 | 0.00 | 0.00 | 44 | 1014.8 |
| 20260505111132 | 10 | 153 | 1.6 | 4.8 | 0.00 | 0.00 | 0.00 | 43 | 1014.9 |
| 20260505110627 | 10 | 198 | 0.0 | 4.8 | 0.00 | 0.00 | 0.00 | 42 | 1014.9 |
| 20260505110140 | 10 | 198 | 1.6 | 4.8 | 0.00 | 0.00 | 0.00 | 42 | 1015.0 |
| 20260505102131 | 10 | 35 | 4.8 | 14.5 | 0.00 | 0.00 | 0.00 | 44 | 1014.5 |
| 20260505101624 | 10 | 53 | 1.6 | 8.0 | 0.00 | 0.00 | 0.00 | 44 | 1014.6 |
| 20260505101138 | 10 | 53 | 3.2 | 11.3 | 0.00 | 0.00 | 0.00 | 44 | 1014.7 |
| 20260505100636 | 10 | 56 | 4.8 | 17.7 | 0.00 | 0.00 | 0.00 | 44 | 1014.5 |
| 20260505100130 | 10 | 32 | 6.4 | 17.7 | 0.00 | 0.00 | 0.00 | 44 | 1014.5 |
| 20260505095624 | 10 | 19 | 3.2 | 20.9 | 0.00 | 0.00 | 0.00 | 44 | 1014.6 |
| 20260505095137 | 10 | 26 | 4.8 | 20.9 | 0.00 | 0.00 | 0.00 | 44 | 1014.7 |
| 20260505094631 | 10 | 236 | 1.6 | 6.4 | 0.00 | 0.00 | 0.00 | 43 | 1014.7 |
| 20260505094125 | 10 | 48 | 1.6 | 11.3 | 0.00 | 0.00 | 0.00 | 43 | 1014.7 |
| 20260505093639 | 10 | 57 | 3.2 | 11.3 | 0.00 | 0.00 | 0.00 | 42 | 1014.7 |
| 20260505093153 | 10 | 36 | 1.6 | 14.5 | 0.00 | 0.00 | 0.00 | 42 | 1014.7 |
| 20260505092630 | 10 | 78 | 3.2 | 17.7 | 0.00 | 0.00 | 0.00 | 42 | 1014.7 |
| 20260505092144 | 10 | 48 | 3.2 | 6.4 | 0.00 | 0.00 | 0.00 | 43 | 1014.9 |
| 20260505091636 | 10 | 26 | 3.2 | 6.4 | 0.00 | 0.00 | 0.00 | 42 | 1014.7 |
| 20260505091151 | 10 | 103 | 0.0 | 12.9 | 0.00 | 0.00 | 0.00 | 41 | 1014.7 |
| 20260505090624 | 11 | 30 | 4.8 | 8.0 | 0.00 | 0.00 | 0.00 | 42 | 1014.7 |
| 20260505090136 | 11 | 28 | 3.2 | 4.8 | 0.00 | 0.00 | 0.00 | 40 | 1014.9 |
| 20260505085631 | 11 | 26 | 1.6 | 12.9 | 0.00 | 0.00 | 0.00 | 41 | 1014.8 |
| 20260505085125 | 11 | 134 | 4.8 | 12.9 | 0.00 | 0.00 | 0.00 | 40 | 1015.0 |
| 20260505084639 | 11 | 49 | 3.2 | 9.7 | 0.00 | 0.00 | 0.00 | 40 | 1015.2 |
| 20260505084132 | 11 | 49 | 3.2 | 9.7 | 0.00 | 0.00 | 0.00 | 40 | 1015.1 |
| 20260505083628 | 11 | 89 | 0.0 | 6.4 | 0.00 | 0.00 | 0.00 | 40 | 1015.1 |
| 20260505083123 | 11 | 74 | 3.2 | 12.9 | 0.00 | 0.00 | 0.00 | 39 | 1015.2 |
| 20260505082636 | 11 | 203 | 3.2 | 14.5 | 0.00 | 0.00 | 0.00 | 39 | 1015.1 |
| 20260505082131 | 11 | 57 | 4.8 | 14.5 | 0.00 | 0.00 | 0.00 | 39 | 1015.0 |
| 20260505081625 | 11 | 360 | 4.8 | 12.9 | 0.00 | 0.00 | 0.00 | 39 | 1015.3 |
| 20260505081139 | 11 | 177 | 4.8 | 12.9 | 0.00 | 0.00 | 0.00 | 38 | 1015.3 |
| 20260505080653 | 11 | 67 | 4.8 | 12.9 | 0.00 | 0.00 | 0.00 | 38 | 1015.5 |
| 20260505080126 | 11 | 286 | 3.2 | 14.5 | 0.00 | 0.00 | 0.00 | 38 | 1015.7 |
| 20260505075625 | 11 | 286 | 6.4 | 14.5 | 0.00 | 0.00 | 0.00 | 37 | 1015.5 |
| 20260505075139 | 11 | 233 | 4.8 | 6.4 | 0.00 | 0.00 | 0.00 | 37 | 1015.4 |
| 20260505074632 | 11 | 71 | 0.0 | 9.7 | 0.00 | 0.00 | 0.00 | 36 | 1015.4 |
| 20260505074127 | 12 | 277 | 3.2 | 9.7 | 0.00 | 0.00 | 0.00 | 36 | 1015.6 |
| 20260505073701 | 12 | 47 | 4.8 | 19.3 | 0.00 | 0.00 | 0.00 | 35 | 1015.6 |
| 20260505073134 | 12 | 350 | 6.4 | 19.3 | 0.00 | 0.00 | 0.00 | 36 | 1015.6 |
| 20260505072627 | 12 | 316 | 3.2 | 14.5 | 0.00 | 0.00 | 0.00 | 35 | 1015.4 |
| 20260505072122 | 12 | 5 | 4.8 | 8.0 | 0.00 | 0.00 | 0.00 | 35 | 1015.2 |
| 20260505071640 | 12 | 333 | 4.8 | 9.7 | 0.00 | 0.00 | 0.00 | 34 | 1015.2 |
| 20260505071133 | 12 | 70 | 4.8 | 9.7 | 0.00 | 0.00 | 0.00 | 34 | 1015.2 |
| 20260505070627 | 12 | 360 | 4.8 | 9.7 | 0.00 | 0.00 | 0.00 | 34 | 1015.2 |
| 20260505070140 | 12 | 355 | 3.2 | 9.7 | 0.00 | 0.00 | 0.00 | 34 | 1015.2 |
| 20260505065635 | 12 | 114 | 3.2 | 9.7 | 0.00 | 0.00 | 0.00 | 34 | 1015.3 |
| 20260505065128 | 12 | 22 | 1.6 | 17.7 | 0.00 | 0.00 | 0.00 | 33 | 1015.3 |
| 20260505064623 | 12 | 79 | 6.4 | 17.7 | 0.00 | 0.00 | 0.00 | 33 | 1015.2 |
| 20260505064136 | 12 | 257 | 3.2 | 9.7 | 0.00 | 0.00 | 0.00 | 33 | 1015.2 |
| 20260505063635 | 12 | 53 | 4.8 | 20.9 | 0.00 | 0.00 | 0.00 | 32 | 1015.2 |
| 20260505063127 | 12 | 5 | 8.0 | 20.9 | 0.00 | 0.00 | 0.00 | 32 | 1015.1 |
| 20260505062622 | 12 | 355 | 4.8 | 8.0 | 0.00 | 0.00 | 0.00 | 33 | 1015.2 |
| 20260505062135 | 12 | 47 | 1.6 | 6.4 | 0.00 | 0.00 | 0.00 | 33 | 1015.2 |
| 20260505061630 | 12 | 292 | 3.2 | 8.0 | 0.00 | 0.00 | 0.00 | 32 | 1015.2 |
| 20260505061122 | 13 | 237 | 1.6 | 8.0 | 0.00 | 0.00 | 0.00 | 31 | 1015.4 |
| 20260505060636 | 13 | 35 | 1.6 | 4.8 | 0.00 | 0.00 | 0.00 | 32 | 1015.4 |
| 20260505060130 | 13 | 79 | 1.6 | 14.5 | 0.00 | 0.00 | 0.00 | 32 | 1015.2 |
| 20260505055627 | 13 | 240 | 4.8 | 14.5 | 0.00 | 0.00 | 0.00 | 32 | 1015.0 |
| 20260505055201 | 13 | 228 | 3.2 | 11.3 | 0.00 | 0.00 | 0.00 | 34 | 1015.1 |
| 20260505054634 | 12 | 272 | 0.0 | 4.8 | 0.00 | 0.00 | 0.00 | 37 | 1015.2 |
| 20260505054126 | 12 | 300 | 3.2 | 8.0 | 0.00 | 0.00 | 0.00 | 37 | 1015.3 |
| 20260505053641 | 13 | 298 | 3.2 | 8.0 | 0.00 | 0.00 | 0.00 | 38 | 1015.0 |
| 20260505053135 | 13 | 161 | 0.0 | 4.8 | 0.00 | 0.00 | 0.00 | 36 | 1015.1 |
| 20260505052628 | 13 | 161 | 1.6 | 4.8 | 0.00 | 0.00 | 0.00 | 36 | 1014.9 |
| 20260505052122 | 13 | 161 | 0.0 | 4.8 | 0.00 | 0.00 | 0.00 | 37 | 1014.9 |
| 20260505051636 | 13 | 161 | 3.2 | 4.8 | 0.00 | 0.00 | 0.00 | 35 | 1014.8 |
| 20260505051134 | 13 | 136 | 0.0 | 0.0 | 0.00 | 0.00 | 0.00 | 36 | 1014.7 |
| 20260505050626 | 14 | 136 | 0.0 | 0.0 | 0.00 | 0.00 | 0.00 | 35 | 1014.8 |
| 20260505050139 | 14 | 142 | 0.0 | 0.0 | 0.00 | 0.00 | 0.00 | 35 | 1014.8 |
| 20260505041624 | 14 | 261 | 1.6 | 9.7 | 0.00 | 0.00 | 0.00 | 32 | 1014.8 |
| 20260505041158 | 14 | 207 | 1.6 | 9.7 | 0.00 | 0.00 | 0.00 | 33 | 1014.7 |
| 20260505040630 | 14 | 146 | 1.6 | 9.7 | 0.00 | 0.00 | 0.00 | 32 | 1014.7 |
| 20260505040125 | 14 | 232 | 4.8 | 9.7 | 0.00 | 0.00 | 0.00 | 32 | 1014.6 |
| 20260505035638 | 14 | 134 | 1.6 | 3.2 | 0.00 | 0.00 | 0.00 | 32 | 1014.8 |
| 20260505035132 | 15 | 134 | 1.6 | 8.0 | 0.00 | 0.00 | 0.00 | 32 | 1014.9 |
| 20260505034626 | 15 | 140 | 1.6 | 8.0 | 0.00 | 0.00 | 0.00 | 31 | 1014.7 |
| 20260505034159 | 15 | 90 | 3.2 | 8.0 | 0.00 | 0.00 | 0.00 | 31 | 1014.7 |
| 20260505033637 | 14 | 163 | 1.6 | 6.4 | 0.00 | 0.00 | 0.00 | 31 | 1014.6 |
| 20260505033152 | 15 | 207 | 1.6 | 4.8 | 0.00 | 0.00 | 0.00 | 30 | 1014.6 |
| 20260505032625 | 15 | 149 | 1.6 | 9.7 | 0.00 | 0.00 | 0.00 | 30 | 1014.6 |
| 20260505032138 | 15 | 50 | 1.6 | 9.7 | 0.00 | 0.00 | 0.00 | 30 | 1014.6 |